Other Public Products
Issued by NWS Charleston, SC

Current Version | Previous Version | Graphics & Text | Print | Product List | Glossary On
Versions: 1 2 3 4 5 6 7 8 9 10 11 12 13 14 15 16 17 18 19 20 21 22 23 24 25 26 27 28 29 30 31 32 33 34 35 36 37 38 39 40 41 42 43 44 45 46 47 48 49 50
845 FPUS82 KCHS 210312 OPUCHS TEST...KCHS/KSAV Gateway Observations...TEST National Weather Service Charleston SC 1000 PM EST FRI JAN 20 2017 NOTE: "fair" indicates few or no clouds below 12,000 feet with no significant weather and/or obstructions to visibility. SCZ050-WAZ558-NCZ071-TXZ119-213-PAZ071-DCZ001-FLZ074-172-MI076- NYZ176-178-MAZ016-IL014-TNZ027-NJZ106-GAZ044-MD014-210400- ...Gateway Observations for Charleston International... CITY SKY/WX TMP DP RH WIND PRES REMARKS Chas Airport CLEAR 61 58 90 S3 29.92S Seattle CLOUDY 46 38 73 S7 29.14R Charlotte PTCLDY 54 51 90 NE6 29.90R Dallas DFW PTCLDY 58 39 49 S6 29.63R Dallas Love CLEAR 60 41 49 S9 29.65R Philladelphia CLOUDY 42 40 92 CALM 29.93S Wash National CLOUDY 47 46 97 S6 29.91F FOG Baltimore DRIZZLE 45 44 97 CALM 29.91R FOG Miami PTCLDY 74 63 68 SW3 30.01R Detroit FOG 41 41 100 S5 29.76R VSB 1/2 Newark DRIZZLE 42 40 92 CALM 29.93S FOG Laguardia LGT RAIN 43 39 86 SE7 29.92F FOG J F K CLOUDY 43 42 97 E5 29.94S Boston Logan CLOUDY 38 33 82 S6 29.95S WCI 33 Ft. Lauderdale PTCLDY 73 63 70 S6 30.00R Chicago O`Hare DRZL/FOG 42 41 96 NE3 29.64F VSB 1/2 Chicago Midway CLOUDY 42 40 92 SE3 29.65S FOG Houston Bush TSTM 65 63 93 S10 29.70R Houston Hobby CLOUDY 65 63 93 E6 29.70S Nashville CLOUDY 59 51 75 S6 29.76S Atlanta MOCLDY 63 59 87 S6 29.88R $$ GAZ044-118-TXZ119-213-NCZ071-DCZ001-MDZ014-506-PAZ021-071-NJZ106- NYZ176-178-MAZ106-OHZ011-021-055-MIZ076-KYZ091-ILZ014-INZ047- MNZ060-210400- ...Gateway Observations for Savannah International... CITY SKY/WX TMP DP RH WIND PRES REMARKS Savannah Arpt CLOUDY 65 60 84 S7 29.93R Atlanta MOCLDY 63 59 87 S6 29.88R Charlotte PTCLDY 54 51 90 NE6 29.90R Dallas DFW PTCLDY 58 39 49 S6 29.63R Houston Bush TSTM 65 63 93 S10 29.70R Wash National CLOUDY 47 46 97 S6 29.91F FOG Wash Dulles CLOUDY 47 45 93 S5 29.90S FOG Baltimore DRIZZLE 45 44 97 CALM 29.91R FOG Philadelphia CLOUDY 42 40 92 CALM 29.93S Newark DRIZZLE 42 40 92 CALM 29.93S FOG Laguardia LGT RAIN 43 39 86 SE7 29.92F FOG J F K CLOUDY 43 42 97 E5 29.94S Boston CLOUDY 38 33 82 S6 29.95S WCI 33 Pittsburg PTCLDY 53 50 89 S5 29.80R Akron MOCLDY 51 46 83 SW7 29.79R Cleveland CLOUDY 51 47 86 SW3 29.80R Cincinnati CLOUDY 52 48 86 S6 29.74S Columbus N/A 48 48 99 S8 29.78S Detroit FOG 41 41 100 S5 29.76R VSB 1/2 Chicago O`Hare DRZL/FOG 42 41 96 NE3 29.64F VSB 1/2 Minneapolis FOG 35 34 96 SE8 29.57R VSB 1 WCI 29 Indianapolis CLOUDY 53 48 83 SE9 29.70S $$

USA.gov is the U.S. government's official web portal to all federal, state and local government web resources and services.